Regional Weather Roundup
Issued by NWS

Home | Current Version | Previous Version | Graphics & Text | Print | Product List | Glossary On
Versions: 1 2 3 4 5 6 7 8 9 10 11 12 13 14 15 16 17 18 19 20 21 22 23 24 25 26 27 28 29 30 31 32 33 34 35 36 37 38 39 40 41 42 43 44 45 46 47 48 49 50
000
ASUS44 KMEG 052310
RWRTN
TENNESSEE HOURLY STATE WEATHER ROUNDUP
NATIONAL WEATHER SERVICE MEMPHIS TN
600 PM CDT THU MAY 05 2016

TNZ002-004-019-021-049-052-054-088>092-060000-
WEST TENNESSEE

CITY           SKY/WX    TMP DP  RH WIND       PRES   REMARKS
MEMPHIS INTL   MOSUNNY   70  37  29 N15G25    29.94S
NWS MEMPHIS      N/A     69 N/A N/A MISG        N/A
JACKSON        MOSUNNY   65  42  43 N20G25    29.95R
DYERSBURG      MOSUNNY   64  43  45 N15       29.97R
UNION CITY     PTSUNNY   63  43  48 N14       29.97S
LEXINGTON      SUNNY     61  39  44 N10       29.95R
$$

TNZ008-025-027-028-033-062-065-066-060000-
NORTH MIDDLE TENNESSEE

CITY           SKY/WX    TMP DP  RH WIND       PRES   REMARKS
NASHVILLE      PTSUNNY   58  38  47 NW13G21   29.93R
CLARKSVILLE    CLOUDY    56  42  59 N14       29.96R
SMYRNA         MOSUNNY   59  41  51 NW15      29.94R
COOKEVILLE     PTSUNNY   55  43  62 N5        29.89S
CROSSVILLE     PTSUNNY   49  38  65 NW9       29.88S
$$

TNZ061-075-076-078-094-096-097-060000-
SOUTH MIDDLE TENNESSEE

CITY           SKY/WX    TMP DP  RH WIND       PRES   REMARKS
TULLAHOMA      CLOUDY    55  37  50 N16G26    29.92R
WINCHESTER     MOSUNNY   54  39  58 N9        29.91R
MCMINNVILLE    PTSUNNY   55  39  54 N9        29.90S
COLUMBIA       SUNNY     57  43  58 N12       29.93R
SHELBYVILLE    PTSUNNY   57  41  54 NW17      29.93R
$$

TNZ017-018-042-046-047-060000-
NORTHEAST TENNESSEE

CITY           SKY/WX    TMP DP  RH WIND       PRES   REMARKS
TRI CITIES     LGT RAIN  48  42  80 N6        29.79R
$$

TNZ012-013-036-069-073-074-060000-
CENTRAL EAST TENNESSEE

CITY           SKY/WX    TMP DP  RH WIND       PRES   REMARKS
KNOXVILLE      CLOUDY    53  41  63 NW9       29.85R
OAK RIDGE      MOSUNNY   55  37  50 NW5       29.87R
GATLINBURG     CLOUDY    52  43  71 W7        29.82R
MORRISTOWN     MOCLDY    52  41  66 N12G21    29.80R
$$

TNZ083-085-099-060000-
SOUTHEAST TENNESSEE

CITY           SKY/WX    TMP DP  RH WIND       PRES   REMARKS
CHATTANOOGA    PTSUNNY   55  38  52 N14       29.88R
$$

SKY/WX REPORTED AS FAIR MEANS FEW OR NO CLOUDS BELOW
12 THOUSAND FEET.





USA.gov is the U.S. government's official web portal to all federal, state and local government web resources and services.